This is the latest recevied weather packets stored in our database for station/object KM4CNW. If no packets are shown the sender has not sent any weather packets the latest 1 day(s).
| Time | Temp. | Humidity | Pressure | Rain* | Wind** | Luminosity | Snow |
|---|---|---|---|---|---|---|---|
| 1778009163 | 26.67° C | 33% | 1008.9 hPa | 0 mm | 0.89 m/s, 300° | 809 W/m² | - |
| 1778008860 | 26.67° C | 33% | 1008.9 hPa | 0 mm | 2.68 m/s, 324° | 827 W/m² | - |
| 1778008558 | 26.11° C | 35% | 1009 hPa | 0 mm | 0.45 m/s, 300° | 840 W/m² | - |
| 1778008255 | 26.11° C | 34% | 1008.8 hPa | 0 mm | 1.79 m/s, 303° | 221 W/m² | - |
| 1778007950 | 26.11° C | 34% | 1008.8 hPa | 0 mm | 2.68 m/s, 322° | 784 W/m² | - |
| 1778007646 | 26.67° C | 34% | 1009.2 hPa | 0 mm | 0.89 m/s, 304° | 765 W/m² | - |
| 1778007343 | 26.11° C | 34% | 1009.4 hPa | 0 mm | 1.79 m/s, 52° | 572 W/m² | - |
| 1778007039 | 26.67° C | 33% | 1009.3 hPa | 0 mm | 2.24 m/s, 306° | 823 W/m² | - |
| 1778006736 | 26.11° C | 33% | 1009.5 hPa | 0 mm | 0.89 m/s, 202° | 649 W/m² | - |
| 1778006433 | 26.11° C | 33% | 1009.7 hPa | 0 mm | 3.13 m/s, 325° | 673 W/m² | - |
| 1778006130 | 26.11° C | 34% | 1009.9 hPa | 0 mm | 1.34 m/s, 92° | 838 W/m² | - |
| 1778005827 | 26.67° C | 34% | 1009.9 hPa | 0 mm | 1.79 m/s, 324° | 388 W/m² | - |
| 1778005523 | 26.67° C | 34% | 1009.8 hPa | 0 mm | 1.34 m/s, 301° | 954 W/m² | - |
| 1778005220 | 26.11° C | 32% | 1009.8 hPa | 0 mm | 2.24 m/s, 316° | 955 W/m² | - |
| 1778004917 | 26.67° C | 34% | 1009.9 hPa | 0 mm | 1.34 m/s, 325° | 595 W/m² | - |
| 1778004615 | 26.67° C | 32% | 1009.8 hPa | 0 mm | 1.34 m/s, 124° | 788 W/m² | - |
| 1778004310 | 26.11° C | 33% | 1010 hPa | 0 mm | 1.34 m/s, 299° | 937 W/m² | - |
| 1778004008 | 26.67° C | 33% | 1010 hPa | 0 mm | 2.24 m/s, 336° | 926 W/m² | - |
| 1778003703 | 26.67° C | 33% | 1009.9 hPa | 0 mm | 1.34 m/s, 267° | 920 W/m² | - |
| 1778003400 | 26.67° C | 33% | 1009.9 hPa | 0 mm | 1.34 m/s, 151° | 910 W/m² | - |
| 1778003097 | 26.11° C | 32% | 1010 hPa | 0 mm | 0.45 m/s, 263° | 905 W/m² | - |
| 1778002793 | 25.56° C | 33% | 1010.1 hPa | 0 mm | 1.34 m/s, 113° | 919 W/m² | - |
| 1778002489 | 26.11° C | 32% | 1009.9 hPa | 0 mm | 1.79 m/s, 318° | 890 W/m² | - |
| 1778002187 | 25.56° C | 33% | 1009.9 hPa | 0 mm | 1.34 m/s, 92° | 768 W/m² | - |
| 1778001885 | 26.11° C | 32% | 1010 hPa | 0 mm | 2.68 m/s, 315° | 827 W/m² | - |
* Rain latest hour (hover to see other rain measurements)
** Current wind speed in m/s (hover to see current wind gust speed)